Station NBLP1 - 8548989 - Newbold, PA Image indicating link to RSS feed of recent meteorological observations for station NBLP1


Conditions at NBLP1 as of
(1:48 pm EDT)
1748 GMT on 06/23/2024:
     

Click on the graph icon in the table below to see a time series plot of the last five days of that observation.

5-day plot - Wind Direction Wind Direction (WDIR):WSW ( 240 deg true )
5-day plot - Wind Speed Wind Speed (WSPD): 13.0 kts
5-day plot - Wind Gust Wind Gust (GST): 18.1 kts
5-day plot - Atmospheric Pressure Atmospheric Pressure (PRES):29.70 in
5-day plot - Air Temperature Air Temperature (ATMP): 91.2 °F
5-day plot - Water Temperature Water Temperature (WTMP): 84.4 °F
5-day plot - Wind Speed at 10 Meters Wind Speed at 10 meters (WSPD10M): 13.6 kts
5-day plot - Wind Speed at 20 Meters Wind Speed at 20 meters (WSPD20M): 15.5 kts
5-day plot -  Wind Speed, Wind Gust and Atmospheric Pressure Combined plot of Wind Speed, Gust, and Air Pressure
NOS Water Level Observation Network Water Level
Previous observations
TIME
(EDT)
5-day plot - Wind Direction
WDIR
 
5-day plot - Wind Speed
WSPD
kts
5-day plot - Wind Gust
GST
kts
5-day plot - Wave Height
WVHT
ft
5-day plot - Dominant Wave Period
DPD
sec
5-day plot - Average Wave Period
APD
sec
5-day plot - Mean Wave Direction
MWD
 
5-day plot - Atmospheric Pressure
PRES
in
5-day plot - Pressure Tendency
PTDY
in
5-day plot - Air Temperature
ATMP
°F
5-day plot - Water Temperature
WTMP
°F
5-day plot - Dew Point
DEWP
°F
5-day plot - Salinity
SAL
psu
5-day plot - Visibility
VIS
nmi
5-day plot - Tide (above MLLW)
TIDE
ft
2024-06-23 01:42 pm SW 14.0 18.1----29.70- 91.8 84.4----
2024-06-23 01:36 pm SW 11.1 17.1----29.70- 91.6 84.4----
2024-06-23 01:30 pm SW 9.9 18.1----29.71- 91.2 84.4----
2024-06-23 01:24 pmWSW 14.0 18.1----29.71- 90.7 84.4----
2024-06-23 01:18 pmWSW 14.0 18.1----29.72- 90.1 84.2----
2024-06-23 01:12 pmWSW 14.0 17.1----29.72- 90.3 84.2----
2024-06-23 01:06 pm SW 8.9 13.0----29.72- 90.1 84.2----
2024-06-23 01:00 pmWSW 12.0 14.0----29.72- 89.8 84.2----
2024-06-23 12:54 pmWSW 9.9 12.0----29.72- 90.0 84.2----
2024-06-23 12:48 pmWSW 11.1 13.0----29.73- 90.5 84.2----
2024-06-23 12:42 pm SW 8.0 11.1----29.73- 90.5 84.2----
2024-06-23 12:36 pmWSW 8.0 12.0----29.73- 90.0 84.2----
2024-06-23 12:30 pm SW 9.9 13.0----29.73- 90.3 84.0----
2024-06-23 12:24 pm SW 9.9 14.0----29.74- 90.0 84.0----
2024-06-23 12:18 pmWSW 11.1 14.0----29.74- 89.4 84.0----
2024-06-23 12:12 pmWSW 13.0 17.1----29.74- 89.2 84.0----
2024-06-23 12:06 pmWSW 13.0 17.1----29.75- 89.1 83.8----
2024-06-23 12:00 pm SW 8.9 14.0----29.75- 89.6 83.8----
2024-06-23 11:54 am SW 11.1 15.0----29.75- 89.1 83.8----
2024-06-23 11:48 am SW 8.9 14.0----29.75- 88.7 83.8----
2024-06-23 11:42 amSSW 8.9 12.0----29.75- 88.9 83.8----
2024-06-23 11:36 amWSW 9.9 14.0----29.75- 88.3 83.8----
2024-06-23 11:30 am W 9.9 13.0----29.75- 88.7 83.8----
2024-06-23 11:24 amWSW 11.1 15.0----29.76- 88.2 83.7----
2024-06-23 11:18 amWSW 6.0 11.1----29.76-- 83.7----
2024-06-23 11:12 am W 9.9 14.0----29.75-- 83.7----
2024-06-23 11:06 amWSW 9.9 15.9----29.76-- 83.7----
2024-06-23 11:00 amWSW 9.9 15.9----29.76-0.05------
2024-06-23 10:54 am SW 13.0 18.1----29.76-------
2024-06-23 10:48 am SW 13.0 15.9----29.76- 88.5 83.7----
2024-06-23 10:42 am SW 8.9 12.0----29.76- 88.0 83.5----
2024-06-23 10:36 amSSW 9.9 15.9----29.76- 87.4 83.5----
2024-06-23 10:30 am SW 11.1 17.1----29.77- 87.3 83.5----
2024-06-23 10:24 amSSW 5.1 8.9----29.77- 86.9 83.5----
2024-06-23 10:18 amSSW 5.1 8.9----29.78-- 83.5----
2024-06-23 10:12 amSSW 5.1 12.0----29.78-- 83.3----
2024-06-23 10:06 am SW 9.9 13.0----29.78-- 83.3----
2024-06-23 10:00 am SW 8.0 13.0------ 85.5 83.3----
2024-06-23 09:54 am SW 8.9 12.0------ 85.5 83.3----
2024-06-23 09:48 amWSW 11.1 15.9----29.78- 85.3 83.3----
2024-06-23 09:42 am SW 8.0 11.1----29.78- 85.6 83.3----
2024-06-23 09:36 am SW 9.9 13.0----29.79- 85.5 83.3----
2024-06-23 09:30 am SW 9.9 15.0----29.79-- 83.3----
2024-06-23 09:24 am SW 9.9 15.9----29.79-- 83.3----
2024-06-23 09:18 am SW 12.0 17.1----29.79- 84.4 83.1----
2024-06-23 09:12 amSSW 12.0 15.9----29.80- 84.2 83.1----
2024-06-23 09:06 amSSW 7.0 14.0----29.80- 84.2 83.1----
2024-06-23 09:00 am SW 7.0 14.0------- 83.1----
2024-06-23 08:54 am SW 9.9 17.1------- 83.1----
2024-06-23 08:48 am SW 8.0 12.0----29.80- 83.3 83.1----
2024-06-23 08:42 am SW 11.1 15.9----29.81- 83.1 83.1----
2024-06-23 08:36 amSSW 9.9 14.0----29.81- 83.1 83.1----
2024-06-23 08:30 am SW 8.9 12.0----29.81- 82.8 83.1----
2024-06-23 08:24 am SW 12.0 15.9----29.81- 82.6 83.1----
2024-06-23 08:18 amSSW 6.0 13.0----29.81- 82.2 83.1----
2024-06-23 08:12 am SW 8.0 11.1----29.81- 81.9 83.1----
2024-06-23 08:06 am SW 6.0 8.0----29.81- 81.7 83.1----
2024-06-23 08:00 am S 5.1 8.0----29.81-0.03- 83.1----
2024-06-23 07:54 am S 7.0 8.9----29.81-- 83.1----
2024-06-23 07:48 am S 4.1 8.0----29.81- 80.4 83.1----
2024-06-23 07:42 am S 5.1 7.0----29.82- 80.1 83.1----
2024-06-23 07:36 am SW 4.1 6.0----29.82- 79.5 83.1----
2024-06-23 07:30 am SW 4.1 4.1----29.82- 79.3 83.1----
2024-06-23 07:24 amSSW 4.1 5.1----29.82- 78.8 83.1----
2024-06-23 07:18 amSSW 2.9 7.0----29.82-- 83.1----
2024-06-23 07:12 am S 5.1 8.0----29.82-- 83.1----
2024-06-23 07:06 am S 5.1 8.0----29.82-- 83.1----
2024-06-23 07:00 am S 5.1 6.0------ 77.5 83.1----
2024-06-23 06:54 amSSW 4.1 5.1------ 77.2 83.1----
2024-06-23 06:48 amSSW 4.1 5.1----29.83- 77.0 83.1----
2024-06-23 06:42 am S 4.1 6.0----29.83- 77.0 83.1----
2024-06-23 06:36 am S 5.1 7.0----29.83- 76.6 83.1----
2024-06-23 06:30 am S 5.1 7.0----29.83- 76.3 83.1----
2024-06-23 06:24 am S 5.1 7.0----29.83- 76.3 83.1----
2024-06-23 06:18 am S 5.1 7.0----29.83- 76.1 83.1----
2024-06-23 06:12 am S 4.1 5.1----29.83- 76.3 83.1----
2024-06-23 06:06 am S 4.1 7.0----29.83- 75.9 83.1----
2024-06-23 06:00 am S 5.1 7.0----29.83-0.05- 83.1----
2024-06-23 05:54 am S 4.1 7.0----29.83-- 83.1----
2024-06-23 05:48 am S 5.1 8.0----29.83- 75.7 83.1----
2024-06-23 05:42 am S 7.0 8.9----29.83- 75.7 83.1----
2024-06-23 05:36 am S 6.0 7.0----29.83- 75.7 83.1----
2024-06-23 05:30 am S 5.1 7.0----29.83- 75.7 83.1----
2024-06-23 05:24 amSSE 5.1 8.0----29.83- 75.9 83.1----
2024-06-23 05:18 amSSE 5.1 7.0----29.83- 75.9 83.1----
2024-06-23 05:12 amSSE 5.1 6.0----29.84- 76.1 83.3----
2024-06-23 05:06 am S 5.1 6.0----29.84- 76.1 83.3----
2024-06-23 05:00 amSSE 5.1 6.0----29.84- 76.3 83.3----
2024-06-23 04:54 amSSE 4.1 5.1----29.85- 76.5 83.3----
2024-06-23 04:48 amSSE 4.1 5.1----29.85- 76.5 83.3----
2024-06-23 04:42 am S 2.9 4.1----29.85- 76.6 83.3----
2024-06-23 04:36 am S 2.9 5.1----29.85- 76.6 83.3----
2024-06-23 04:30 am S 2.9 6.0----29.85- 76.6 83.3----
2024-06-23 04:24 am S 2.9 7.0----29.85- 77.0 83.5----
2024-06-23 04:18 amSSE 5.1 6.0----29.85- 76.6 83.5----
2024-06-23 04:12 am S 5.1 6.0----29.85- 76.8 83.5----
2024-06-23 04:06 am S 4.1 5.1----29.86- 76.8 83.5----
2024-06-23 04:00 am S 4.1 6.0----29.86-0.04 76.8 83.5----
2024-06-23 03:54 am S 5.1 6.0----29.86- 76.6 83.5----
2024-06-23 03:48 am S 5.1 7.0----29.86- 76.6 83.5----
2024-06-23 03:42 amSSE 5.1 6.0----29.86- 76.8 83.7----
2024-06-23 03:36 am S 5.1 6.0----29.87- 76.6 83.7----
2024-06-23 03:30 amSSE 5.1 6.0----29.87- 76.8 83.7----
2024-06-23 03:24 amSSE 5.1 6.0----29.87- 77.0 83.7----
2024-06-23 03:18 amSSE 6.0 7.0----29.87- 76.8 83.7----
2024-06-23 03:12 amSSE 5.1 6.0----29.87- 77.0 83.8----
2024-06-23 03:06 amSSE 5.1 7.0----29.87- 77.0 83.8----
2024-06-23 03:00 amSSE 5.1 6.0----29.88-0.04 77.2 83.8----
2024-06-23 02:54 amSSE 4.1 6.0----29.88- 77.2 83.8----
2024-06-23 02:48 amSSE 5.1 6.0----29.88- 77.4 83.8----
2024-06-23 02:42 amSSE 5.1 7.0----29.88- 77.4 83.8----
2024-06-23 02:36 amSSE 5.1 6.0----29.88- 77.4 84.0----
2024-06-23 02:30 amSSE 5.1 6.0----29.89- 77.5 84.0----
2024-06-23 02:24 amSSE 5.1 6.0----29.89- 77.7 84.0----
2024-06-23 02:18 amSSE 5.1 6.0----29.89- 77.9 84.0----
2024-06-23 02:12 amSSE 4.1 6.0----29.89- 78.3 84.0----
2024-06-23 02:06 amSSE 6.0 7.0----29.89- 78.3 84.0----
2024-06-23 02:00 am--------- 78.4 84.0----
2024-06-23 01:54 am--------- 78.4 84.2----
2024-06-23 01:48 amSSE 5.1 7.0----29.90- 78.6 84.2----
2024-06-23 01:42 amSSE 5.1 7.0----29.90- 79.0 84.2----
2024-06-23 01:36 amSSE 5.1 6.0----29.90- 79.2 84.2----
2024-06-23 01:30 am-------29.90-- 84.2----
2024-06-23 01:24 am-------29.90-- 84.2----
2024-06-23 01:18 amSSE 5.1 6.0----29.90- 79.5 84.2----
2024-06-23 01:12 amSSE 6.0 7.0----29.90- 79.5 84.2----
2024-06-23 01:06 amSSE 5.1 7.0----29.90- 79.5 84.2----
2024-06-23 01:00 amSSE 6.0 8.0----29.90-0.04 79.7 84.4----
2024-06-23 12:54 amSSE 6.0 8.0----29.90- 79.7 84.4----
2024-06-23 12:48 amSSE 6.0 8.9----29.91- 79.7 84.4----
2024-06-23 12:42 amSSE 6.0 8.9----29.91- 79.5 84.4----
2024-06-23 12:36 amSSE 7.0 8.9----29.90- 79.5 84.4----
2024-06-23 12:30 amSSE 7.0 8.9----29.91- 79.9 84.4----
2024-06-23 12:24 am SE 7.0 8.0----29.91- 80.2 84.4----
2024-06-23 12:18 am SE 6.0 8.0----29.91-- 84.4----
2024-06-23 12:12 am SE 4.1 6.0----29.91-- 84.4----
2024-06-23 12:06 am SE 2.9 5.1----29.91-- 84.4----
2024-06-23 12:00 am SE 2.9 4.1----29.91-0.02 80.2 84.4----
2024-06-22 11:54 pm SE 1.9 4.1----29.91- 80.1 84.4----
2024-06-22 11:48 pm SE 2.9 4.1----29.91- 79.9 84.4----
2024-06-22 11:42 pmESE 1.9 2.9----29.92- 80.4 84.4----
2024-06-22 11:36 pmESE 1.9 2.9----29.92- 80.4 84.4----
2024-06-22 11:30 pmESE 1.9 1.9----29.92- 80.6 84.4----
2024-06-22 11:24 pm- 0.0 1.0----29.92- 81.3 84.4----
2024-06-22 11:18 pmESE 1.0 1.9----29.92- 81.7 84.4----
2024-06-22 11:12 pm E 1.9 2.9----29.93- 81.9 84.2----
2024-06-22 11:06 pm- 0.0 1.9----29.93- 82.8 84.2----
2024-06-22 11:00 pm-------29.93+0.02- 84.2----
2024-06-22 10:54 pm-------29.93-- 84.2----
2024-06-22 10:48 pm-------29.93-- 84.2----
2024-06-22 10:42 pm-------29.93-- 84.2----
2024-06-22 10:36 pm-------29.93-- 84.2----
2024-06-22 10:30 pm E 1.0 2.9----29.93- 82.2 84.0----
2024-06-22 10:24 pm E 1.9 4.1----29.93- 82.2 84.0----
2024-06-22 10:18 pmESE 2.9 5.1----29.93- 82.0 84.0----
2024-06-22 10:12 pm E 5.1 8.0----29.94- 82.8 84.0----
2024-06-22 10:06 pm NE 6.0 8.0----29.94- 82.8 83.8----
2024-06-22 10:00 pmNNE 2.9 6.0----29.95+0.04- 83.8----
2024-06-22 09:54 pm NE 5.1 6.0----29.94-- 83.8----
2024-06-22 09:48 pm NE 5.1 7.0----29.94- 83.5 83.7----
2024-06-22 09:42 pmENE 5.1 7.0----29.93- 83.7 83.7----
2024-06-22 09:36 pm NE 4.1 6.0----29.93- 84.0 83.5----
2024-06-22 09:30 pmNNE 4.1 6.0----29.93-------
2024-06-22 09:24 pm E 2.9 4.1----29.92-------
2024-06-22 09:18 pmENE 4.1 7.0----29.92- 84.9 83.5----
2024-06-22 09:12 pm E 4.1 8.9----29.92- 85.1 83.5----
2024-06-22 09:06 pmENE 8.9 9.9----29.92- 86.5 83.5----
2024-06-22 09:00 pm E 1.9 8.0----29.93+0.03 84.4 83.5----
2024-06-22 08:54 pmNNE 8.9 13.0----29.93- 84.4 83.5----
2024-06-22 08:48 pmNNE 7.0 8.9----29.93- 85.8 83.5----
2024-06-22 08:42 pm- 0.0 4.1----29.92- 84.4 83.5----
2024-06-22 08:36 pm SE 4.1 5.1----29.91- 84.2 83.5----
2024-06-22 08:30 pmESE 1.9 5.1----29.91- 84.4 83.5----
2024-06-22 08:24 pmESE 4.1 8.0----29.91- 84.4 83.5----
2024-06-22 08:18 pmESE 4.1 5.1----29.91- 84.7 83.5----
2024-06-22 08:12 pm E 4.1 5.1----29.91- 85.3 83.5----
2024-06-22 08:06 pm E 4.1 5.1----29.91- 85.6 83.5----
2024-06-22 08:00 pmESE 4.1 8.9----29.91+0.00 85.3 83.5----
2024-06-22 07:54 pm SE 6.0 7.0----29.91- 85.3 83.3----
2024-06-22 07:48 pm SE 5.1 7.0------- 83.3----
2024-06-22 07:42 pm SE 7.0 8.9------- 83.3----
2024-06-22 07:36 pmESE 5.1 8.0------- 83.3----
2024-06-22 07:30 pmESE 5.1 7.0----29.91- 86.4 83.3----
2024-06-22 07:24 pm SE 7.0 8.9----29.91- 86.4 83.3----
2024-06-22 07:18 pmESE 6.0 9.9----29.90- 86.4 83.3----
2024-06-22 07:00 pmESE 7.0 12.0----29.90-0.03- 83.3----
2024-06-22 06:54 pmESE 7.0 12.0----29.91-- 83.3----
2024-06-22 06:48 pm E 8.9 12.0----29.91- 88.2 83.3----
2024-06-22 06:42 pm E 8.9 12.0----29.91- 89.4 83.3----
2024-06-22 06:36 pm E 7.0 9.9----29.91- 90.9 83.3----
2024-06-22 06:30 pm E 6.0 8.9----29.91- 90.5 83.3----
2024-06-22 06:24 pm NE 7.0 9.9----29.91- 91.4 83.3----
2024-06-22 06:18 pm- 0.0 2.9----29.90- 93.7 83.3----
2024-06-22 06:12 pmWSW 2.9 5.1----29.90- 93.2 83.3----
2024-06-22 06:06 pmWSW 2.9 4.1----29.90- 94.1 83.3----
2024-06-22 06:00 pmWSW 1.9 4.1----29.90-0.05 93.0 83.3----
2024-06-22 05:54 pmWSW 2.9 4.1----29.90- 93.4 83.3----
2024-06-22 05:48 pm W 5.1 8.0----29.91- 93.6 83.3----
2024-06-22 05:42 pmWSW 4.1 8.0----29.90- 93.6 83.5----
2024-06-22 05:36 pm W 6.0 9.9----29.91- 92.7 83.5----
2024-06-22 05:30 pmWSW 6.0 7.0----29.90-- 83.5----
2024-06-22 05:24 pm W 6.0 8.0----29.90-- 83.5----
2024-06-22 05:18 pm W 5.1 7.0----29.91- 92.5 83.5----
2024-06-22 05:12 pmWSW 5.1 7.0----29.91- 91.2 83.3----
2024-06-22 05:06 pmWSW 7.0 9.9----29.91- 91.6 83.3----
2024-06-22 05:00 pmWSW 8.9 11.1----29.91-0.05 92.1 83.3----
2024-06-22 04:54 pm SW 6.0 7.0----29.91- 91.4 83.3----
2024-06-22 04:48 pmWSW 4.1 5.1----29.91-- 83.3----
2024-06-22 04:42 pmWNW 2.9 5.1----29.92-- 83.3----
2024-06-22 04:36 pm NW 4.1 5.1----29.92-- 83.1----
2024-06-22 04:30 pm--------- 91.4 83.1----
2024-06-22 04:24 pm--------- 89.6 83.1----
2024-06-22 04:18 pmWSW 5.1 8.0----29.93-- 83.1----
2024-06-22 04:12 pm W 6.0 7.0----29.93-- 83.1----
2024-06-22 04:06 pmWSW 7.0 9.9----29.93-- 83.1----
2024-06-22 04:00 pmWSW 9.9 12.0----29.93-0.06 88.2 83.1----
2024-06-22 03:54 pmWSW 8.9 14.0----29.94- 88.2 83.1----
2024-06-22 03:48 pmWSW 9.9 17.1----29.94- 88.0 83.1----
2024-06-22 03:42 pmWSW 15.9 19.0----29.94- 88.3 83.3----
2024-06-22 03:36 pmWSW 7.0 9.9----29.94- 88.9 83.3----
2024-06-22 03:30 pm W 8.0 13.0----29.95- 88.5 83.3----
2024-06-22 03:24 pm W 6.0 8.0----29.95- 87.6 83.3----
2024-06-22 03:18 pm NW 5.1 7.0----29.95- 87.4 83.3----
2024-06-22 03:12 pm NW 6.0 9.9----29.95- 86.4 83.3----
2024-06-22 03:06 pmWNW 9.9 15.0----29.95- 85.8 83.3----
2024-06-22 03:00 pm W 9.9 15.9----29.95-0.06 87.6 83.3----
2024-06-22 02:54 pm W 8.0 12.0----29.95- 89.4 83.1----
2024-06-22 02:48 pmWSW 6.0 9.9----29.94- 91.6 83.1----
2024-06-22 02:42 pmWSW 8.0 9.9----29.95- 90.9 83.3----
2024-06-22 02:36 pmWSW 8.0 9.9----29.95- 91.8 83.3----
2024-06-22 02:30 pmWSW 9.9 12.0----29.95- 92.5 83.3----
2024-06-22 02:24 pmWSW 8.0 11.1----29.96- 93.2 83.3----
2024-06-22 02:18 pmWSW 7.0 14.0----29.96- 92.8-----
2024-06-22 02:12 pmWSW 9.9 13.0----29.96- 92.5-----
2024-06-22 02:06 pmWSW 9.9 13.0----29.96- 92.5-----
2024-06-22 02:00 pmWSW 11.1 13.0----29.96-0.06 92.5 83.1----
2024-06-22 01:54 pmWSW 8.9 13.0----29.97- 91.9 83.1----